Flag for Japan Weather past 2 weeks in Okayama, Japan

Now
73 °F

Mild.


Feels Like: 70 °F
Forecast: 66 / 83 °F
Wind: 5 mph from Northwest

Location: Takamatsu

Current Time: Jul 3, 2015 at 1:43:05 AM

Latest Report: Jul 3, 2015 at 1:00 AM


Visibility: N/A

Pressure: 29.66 "Hg

Humidity: 90%

Dew point: 70 °F

Location of OkayamaLocation

Historic Weather in Okayama — Graph

°F

Okayama temperature yesterday

Maximum temperature yesterday: 82 °F (at 11:00 AM)
Minimum temperature yesterday: 71 °F (at 5:00 AM)
Average temperature yesterday: 76 °F

Past Weeks' High & Low Weather Summary

 TemperatureHumidityPressure
High87 °F (Jun 25, 2:00 PM)98% (Jun 20, 2:00 AM)29.90 "Hg (Jun 20, 2:00 AM)
Low63 °F (Jun 29, 5:00 AM)47% (Jun 21, 4:00 PM)29.21 "Hg (Jul 1, 5:00 AM)
Average74 °F77%29.70 "Hg
* Reported Midnight between Jun 17 and Jun 18 — Midnight between Jul 2 and Jul 3, Okayama, Weather by CustomWeather, © 2015

Note: Actual official high and low records may vary slightly from our data, if they occured in-between our weather recording intervals... More about our weather records

Advertising

Okayama weather history for previous 24 hours

 ConditionsComfort  
Time TempWeatherWind HumidityBarometerVisibility
12:00 AM
Fri, Jul 3
74 °FMild.2 mph85%29.66 "HgN/A
11:00 PM
Thu, Jul 2
74 °FMild.3 mph86%29.66 "HgN/A
10:00 PM75 °FMild.2 mph83%29.66 "HgN/A
9:00 PM76 °FOvercast.2 mph79%29.65 "Hg6 mi
8:00 PM77 °FMild.2 mph74%29.65 "HgN/A
7:00 PM77 °FWarm.3 mph72%29.65 "HgN/A
6:00 PM78 °FOvercast.3 mph68%29.62 "Hg9 mi
5:00 PM79 °FWarm.5 mph61%29.62 "HgN/A
4:00 PM80 °FWarm.5 mph54%29.62 "HgN/A
3:00 PM80 °FOvercast.6 mph56%29.61 "Hg12 mi
2:00 PM81 °FWarm.8 mph55%29.62 "HgN/A
1:00 PM81 °FWarm.8 mph55%29.61 "HgN/A
12:00 PM80 °FOvercast.8 mph57%29.61 "Hg12 mi
11:00 AM82 °FWarm.7 mph56%29.63 "HgN/A
10:00 AM80 °FWarm.8 mph59%29.61 "HgN/A
9:00 AM78 °FOvercast.10 mph62%29.62 "Hg9 mi
8:00 AM76 °FMild.12 mph67%29.62 "HgN/A
7:00 AM74 °FMild.9 mph73%29.60 "HgN/A
6:00 AM71 °FPartly sunny.7 mph81%29.59 "Hg9 mi
5:00 AM71 °FMild.3 mph83%29.58 "HgN/A
4:00 AM71 °FMild.9 mph84%29.57 "HgN/A
3:00 AM72 °FOvercast.6 mph84%29.56 "Hg9 mi
2:00 AM72 °FMild.3 mph82%29.55 "HgN/A
1:00 AM74 °FMild.3 mph79%29.55 "HgN/A
Weather by CustomWeather, © 2015

See weather overviewHow to use our weather pages